Weather History for Artesia, NM

Change the Weather History Date:

Thursday, February 21, 2013

  Actual Average Record
Temperature  
Mean Temperature 47 °F -  
Max Temperature 59 °F 65 °F 83 °F (1981)
Min Temperature 35 °F 28 °F 13 °F (1964)
Degree Days  
Heating Degree Days 18    
Moisture  
Dew Point 16 °F    
Average Humidity 32    
Maximum Humidity 45    
Minimum Humidity 15    
Precipitation  
Precipitation 0.00 in - - ()
Sea Level Pressure  
Sea Level Pressure 29.74 in    
Wind  
Wind Speed 23 mph (WSW)    
Max Wind Speed 34 mph    
Max Gust Speed 44 mph    
Visibility 10 miles    
Events      
Averages and records for this station are not official NWS values.
T = Trace of Precipitation, MM = Missing Value Source: NWS Daily Summary

Daily Weather History Graph

Daily Weather History Graph

Search for Another Location

Airport:

Trip Planner

Search our weather history database for the weather conditions in past years. The results will help you decide how hot, cold, wet, or windy it might be!

Date:

Astronomy

Feb. 21, 2013 Rise Set
Actual Time 6:34 AM MST 5:48 PM MST
Civil Twilight 6:09 AM MST 6:13 PM MST
Nautical Twilight 5:40 AM MST 6:42 PM MST
Astronomical Twilight 5:12 AM MST 7:11 PM MST
Moon 2:13 PM MST (2/21) 3:32 AM MST (2/21)
Length of Visible Light 12h 04m
Length of Day
11h 14m
Waxing Gibbous, 84% of the Moon is Illuminated
Feb 21
Waxing Gibbous
Feb 25
Full
Mar 4
Last Quarter
Mar 11
New
Mar 19
First Quarter

Hourly Weather History & Observations

Time (MST) Temp. Windchill Dew Point Humidity Pressure Visibility Wind Dir Wind Speed Gust Speed Precip Events Conditions
12:15 AM 42.8 °F 32.9 °F 21.2 °F 42% 29.63 in 10.0 mi SW 26.5 mph 32.2 mph N/A   Clear
12:35 AM 41.0 °F 30.7 °F 19.4 °F 42% 29.62 in 10.0 mi SW 25.3 mph 36.8 mph N/A   Clear
12:55 AM 41.0 °F 31.9 °F 19.4 °F 42% 29.63 in 10.0 mi SSW 19.6 mph 27.6 mph N/A   Clear
1:15 AM 41.0 °F 31.4 °F 19.4 °F 42% 29.65 in 10.0 mi SW 21.9 mph 27.6 mph N/A   Clear
1:35 AM 41.0 °F 29.7 °F 15.8 °F 36% 29.64 in 10.0 mi WSW 31.1 mph 39.1 mph N/A   Clear
1:55 AM 39.2 °F 27.8 °F 15.8 °F 39% 29.63 in 10.0 mi WSW 27.6 mph 38.0 mph N/A   Clear
2:15 AM 39.2 °F 28.7 °F 15.8 °F 39% 29.64 in 10.0 mi SW 23.0 mph 34.5 mph N/A   Clear
2:35 AM 37.4 °F 26.4 °F 17.6 °F 45% 29.64 in 10.0 mi WSW 23.0 mph 28.8 mph N/A   Clear
2:55 AM 37.4 °F 26.1 °F 17.6 °F 45% 29.64 in 10.0 mi SW 24.2 mph 32.2 mph N/A   Clear
3:15 AM 37.4 °F 25.6 °F 15.8 °F 41% 29.63 in 10.0 mi WSW 26.5 mph 33.4 mph N/A   Clear
3:35 AM 37.4 °F 25.4 °F 15.8 °F 41% 29.61 in 10.0 mi WSW 27.6 mph 35.7 mph N/A   Clear
3:55 AM 37.4 °F 24.6 °F 14.0 °F 38% 29.61 in 10.0 mi WSW 32.2 mph 40.3 mph N/A   Clear
4:15 AM 37.4 °F 24.8 °F 14.0 °F 38% 29.62 in 10.0 mi WSW 31.1 mph 38.0 mph N/A   Clear
4:55 AM 35.6 °F 23.2 °F 14.0 °F 41% 29.64 in 10.0 mi WSW 26.5 mph 34.5 mph N/A   Clear
5:15 AM 35.6 °F 22.5 °F 14.0 °F 41% 29.65 in 10.0 mi WSW 29.9 mph 35.7 mph N/A   Clear
5:35 AM 35.6 °F 22.1 °F 14.0 °F 41% 29.64 in 10.0 mi WSW 32.2 mph 41.4 mph N/A   Clear
5:55 AM 35.6 °F 21.7 °F 15.8 °F 44% 29.61 in 10.0 mi WSW 34.5 mph 43.7 mph N/A   Clear
6:15 AM 35.6 °F 22.7 °F 15.8 °F 44% 29.63 in 10.0 mi WSW 28.8 mph 36.8 mph N/A   Clear
6:35 AM 35.6 °F 22.1 °F 15.8 °F 44% 29.64 in 10.0 mi WSW 32.2 mph 39.1 mph N/A   Clear
6:55 AM 35.6 °F 23.2 °F 15.8 °F 44% 29.66 in 10.0 mi West 26.5 mph 38.0 mph N/A   Clear
7:15 AM 35.6 °F 24.8 °F 15.8 °F 44% 29.68 in 10.0 mi West 19.6 mph 31.1 mph N/A   Clear
7:35 AM 37.4 °F 25.6 °F 15.8 °F 41% 29.68 in 10.0 mi West 26.5 mph - N/A   Clear
7:55 AM 39.2 °F 28.3 °F 15.8 °F 39% 29.69 in 10.0 mi West 25.3 mph 31.1 mph N/A   Clear
8:15 AM 42.8 °F 32.9 °F 14.0 °F 31% 29.71 in 10.0 mi West 26.5 mph 31.1 mph N/A   Clear
8:35 AM 44.6 °F 36.4 °F 15.8 °F 31% 29.72 in 10.0 mi West 20.7 mph 29.9 mph N/A   Clear
8:55 AM 46.4 °F 38.1 °F 15.8 °F 29% 29.72 in 10.0 mi West 24.2 mph 32.2 mph N/A   Clear
9:15 AM 48.2 °F - 15.8 °F 27% 29.72 in 10.0 mi West 26.5 mph 34.5 mph N/A   Clear
9:35 AM 48.2 °F - 15.8 °F 27% 29.74 in 10.0 mi WSW 26.5 mph 31.1 mph N/A   Clear
9:55 AM 48.2 °F - 17.6 °F 30% 29.76 in 10.0 mi WSW 24.2 mph 31.1 mph N/A   Clear
10:15 AM 48.2 °F - 17.6 °F 30% 29.76 in 10.0 mi WSW 21.9 mph 32.2 mph N/A   Clear
10:35 AM 50.0 °F - 17.6 °F 28% 29.77 in 10.0 mi WSW 25.3 mph 32.2 mph N/A   Clear
10:55 AM 53.6 °F - 17.6 °F 24% 29.77 in 10.0 mi WSW 23.0 mph 28.8 mph N/A   Clear
11:15 AM 53.6 °F - 17.6 °F 24% 29.77 in 10.0 mi WSW 19.6 mph 28.8 mph N/A   Clear
11:35 AM 55.4 °F - 17.6 °F 23% 29.76 in 10.0 mi West 21.9 mph 29.9 mph N/A   Clear
11:55 AM 55.4 °F - 15.8 °F 21% 29.76 in 10.0 mi West 24.2 mph 29.9 mph N/A   Clear
12:15 PM 55.4 °F - 15.8 °F 21% 29.76 in 10.0 mi SW 9.2 mph 16.1 mph N/A   Clear
12:35 PM 59.0 °F - 10.4 °F 15% 29.75 in 10.0 mi WNW 15.0 mph 21.9 mph N/A   Clear
12:55 PM 59.0 °F - 10.4 °F 15% 29.75 in 10.0 mi NW 20.7 mph 26.5 mph N/A   Clear
1:15 PM 59.0 °F - 14.0 °F 17% 29.74 in 10.0 mi West 15.0 mph 28.8 mph N/A   Clear
1:35 PM 59.0 °F - 14.0 °F 17% 29.74 in 10.0 mi WSW 18.4 mph 27.6 mph N/A   Clear
1:55 PM 57.2 °F - 14.0 °F 18% 29.74 in 10.0 mi SW 23.0 mph 31.1 mph N/A   Clear
2:15 PM 57.2 °F - 14.0 °F 18% 29.74 in 10.0 mi SW 27.6 mph 34.5 mph N/A   Clear
2:35 PM 57.2 °F - 14.0 °F 18% 29.74 in 10.0 mi WSW 23.0 mph 29.9 mph N/A   Clear
2:55 PM 57.2 °F - 14.0 °F 18% 29.75 in 10.0 mi West 19.6 mph 33.4 mph N/A   Clear
3:15 PM 57.2 °F - 14.0 °F 18% 29.74 in 10.0 mi WSW 27.6 mph 32.2 mph N/A   Clear
3:35 PM 57.2 °F - 14.0 °F 18% 29.74 in 10.0 mi SW 29.9 mph 34.5 mph N/A   Clear
3:55 PM 55.4 °F - 14.0 °F 20% 29.74 in 10.0 mi SW 25.3 mph 34.5 mph N/A   Clear
4:15 PM 55.4 °F - 15.8 °F 21% 29.74 in 10.0 mi WSW 20.7 mph 31.1 mph N/A   Clear
4:35 PM 55.4 °F - 15.8 °F 21% 29.74 in 10.0 mi WSW 25.3 mph 32.2 mph N/A   Clear
4:55 PM 55.4 °F - 14.0 °F 20% 29.75 in 10.0 mi WSW 20.7 mph 29.9 mph N/A   Clear
5:15 PM 53.6 °F - 15.8 °F 22% 29.76 in 10.0 mi WSW 26.5 mph 31.1 mph N/A   Clear
5:35 PM 51.8 °F - 14.0 °F 22% 29.77 in 10.0 mi WSW 20.7 mph 29.9 mph N/A   Clear
5:55 PM 50.0 °F - 14.0 °F 24% 29.78 in 10.0 mi WSW 19.6 mph 28.8 mph N/A   Clear
6:15 PM 50.0 °F - 14.0 °F 24% 29.78 in 10.0 mi West 19.6 mph - N/A   Clear
6:35 PM 48.2 °F - 14.0 °F 25% 29.80 in 10.0 mi WSW 13.8 mph - N/A   Clear
6:55 PM 46.4 °F 40.7 °F 15.8 °F 29% 29.82 in 10.0 mi WSW 12.7 mph - N/A   Clear
7:15 PM 46.4 °F 40.1 °F 15.8 °F 29% 29.83 in 10.0 mi WSW 15.0 mph - N/A   Clear
7:35 PM 46.4 °F 41.1 °F 15.8 °F 29% 29.84 in 10.0 mi WSW 11.5 mph - N/A   Clear
7:55 PM 44.6 °F 38.1 °F 14.0 °F 29% 29.85 in 10.0 mi WSW 13.8 mph - N/A   Clear
8:15 PM 44.6 °F 38.1 °F 14.0 °F 29% 29.85 in 10.0 mi WSW 13.8 mph - N/A   Clear
8:35 PM 42.8 °F 35.8 °F 15.8 °F 34% 29.86 in 10.0 mi WSW 13.8 mph - N/A   Clear
8:55 PM 41.0 °F 34.3 °F 15.8 °F 36% 29.86 in 10.0 mi SW 11.5 mph - N/A   Clear
9:15 PM 41.0 °F 36.4 °F 15.8 °F 36% 29.88 in 10.0 mi SW 6.9 mph - N/A   Clear
9:35 PM 37.4 °F 31.4 °F 14.0 °F 38% 29.88 in 10.0 mi SSW 8.1 mph - N/A   Clear
9:55 PM 37.4 °F 30.3 °F 15.8 °F 41% 29.88 in 10.0 mi WSW 10.4 mph - N/A   Clear
10:15 PM 39.2 °F 32.0 °F 17.6 °F 42% 29.87 in 10.0 mi WSW 11.5 mph - N/A   Clear
10:35 PM 37.4 °F 30.3 °F 17.6 °F 45% 29.87 in 10.0 mi SW 10.4 mph - N/A   Clear
10:55 PM 37.4 °F 29.8 °F 17.6 °F 45% 29.88 in 10.0 mi SW 11.5 mph - N/A   Clear
11:15 PM 37.4 °F 30.3 °F 17.6 °F 45% 29.88 in 10.0 mi SW 10.4 mph - N/A   Clear
11:35 PM 37.4 °F 29.8 °F 17.6 °F 45% 29.89 in 10.0 mi SSW 11.5 mph - N/A   Clear
11:55 PM 37.4 °F 29.8 °F 17.6 °F 45% 29.88 in 10.0 mi SW 11.5 mph - N/A   Clear